| time (UTC) | temp F | wind direction | speed MPH | gust MPH | rain 1hr in | rain 24hr in | rain mn in | humidity % | barometer mb |
| 20260503055001 | 64 | 0 | 1.0 | 0.0 | 0.00 | 0.00 | 0.00 | 10 | 1017.0 |
| 20260503053501 | 64 | 0 | 1.0 | 0.0 | 0.00 | 0.00 | 0.00 | 10 | 1017.0 |
| 20260503052000 | 64 | 0 | 1.0 | 0.0 | 0.00 | 0.00 | 0.00 | 10 | 1018.0 |
| 20260503050459 | 64 | 0 | 1.0 | 0.0 | 0.00 | 0.00 | 0.00 | 10 | 1018.0 |
| 20260503044958 | 64 | 0 | 2.0 | 0.0 | 0.00 | 0.00 | 0.00 | 10 | 1018.0 |
| 20260503043458 | 64 | 0 | 2.0 | 0.0 | 0.00 | 0.00 | 0.00 | 10 | 1018.0 |
| 20260503041956 | 64 | 0 | 2.0 | 0.0 | 0.00 | 0.00 | 0.00 | 10 | 1018.0 |
| 20260503040456 | 65 | 0 | 2.0 | 0.0 | 0.00 | 0.00 | 0.00 | 10 | 1018.0 |
| 20260503034955 | 66 | 0 | 2.0 | 0.0 | 0.00 | 0.00 | 0.00 | 10 | 1018.0 |
| 20260503033451 | 59 | 0 | 2.0 | 0.0 | 0.00 | 0.00 | 0.00 | 93 | 1018.0 |
| 20260503031950 | 60 | 46 | 1.0 | 1.0 | 0.00 | 0.00 | 0.00 | 92 | 1017.0 |
| 20260503030448 | 59 | 0 | 1.0 | 0.0 | 0.00 | 0.00 | 0.00 | 93 | 1017.0 |
| 20260503024948 | 60 | 0 | 2.0 | 0.0 | 0.00 | 0.00 | 0.00 | 94 | 1017.0 |
| 20260503023448 | 61 | 0 | 1.0 | 0.0 | 0.00 | 0.00 | 0.00 | 93 | 1017.0 |
| 20260503021947 | 62 | 0 | 2.0 | 0.0 | 0.00 | 0.00 | 0.00 | 94 | 1016.0 |
| 20260503020446 | 60 | 92 | 2.0 | 1.0 | 0.00 | 0.00 | 0.00 | 92 | 1016.0 |
| 20260503014946 | 60 | 92 | 2.0 | 1.0 | 0.00 | 0.00 | 0.00 | 92 | 1016.0 |
| 20260503013445 | 60 | 92 | 2.0 | 1.0 | 0.00 | 0.00 | 0.00 | 92 | 1016.0 |
| 20260503011945 | 59 | 100 | 3.0 | 0.0 | 0.00 | 0.00 | 0.00 | 93 | 1016.0 |
| 20260503010445 | 60 | 100 | 3.0 | 0.0 | 0.00 | 0.00 | 0.00 | 94 | 1016.0 |
| 20260503004943 | 61 | 100 | 3.0 | 0.0 | 0.00 | 0.00 | 0.00 | 95 | 1016.0 |
| 20260503003443 | 61 | 100 | 3.0 | 0.0 | 0.00 | 0.00 | 0.00 | 94 | 1016.0 |
| 20260503001942 | 63 | 100 | 3.0 | 0.0 | 0.00 | 0.00 | 0.00 | 95 | 1015.0 |
| 20260502234940 | 60 | 91 | 1.0 | 1.0 | 0.00 | 0.00 | 0.00 | 93 | 1015.0 |
| 20260502233439 | 61 | 91 | 2.0 | 2.0 | 0.00 | 0.00 | 0.00 | 93 | 1015.0 |
| 20260502231938 | 60 | 0 | 1.0 | 0.0 | 0.00 | 0.00 | 0.00 | 94 | 1014.0 |
| 20260502230438 | 61 | 0 | 1.0 | 0.0 | 0.00 | 0.00 | 0.00 | 95 | 1014.0 |
| 20260502224936 | 62 | 0 | 1.0 | 0.0 | 0.00 | 0.00 | 0.00 | 95 | 1014.0 |
| 20260502223435 | 63 | 0 | 1.0 | 0.0 | 0.00 | 0.00 | 0.00 | 95 | 1014.0 |
| 20260502221935 | 64 | 0 | 1.0 | 0.0 | 0.00 | 0.00 | 0.00 | 95 | 1013.0 |
| 20260502220434 | 62 | 90 | 3.0 | 0.0 | 0.00 | 0.00 | 0.00 | 95 | 1013.0 |
| 20260502214932 | 63 | 90 | 3.0 | 0.0 | 0.00 | 0.00 | 0.00 | 95 | 1013.0 |
| 20260502213432 | 64 | 90 | 3.0 | 0.0 | 0.00 | 0.00 | 0.00 | 95 | 1013.0 |
| 20260502211930 | 63 | 90 | 3.0 | 0.0 | 0.00 | 0.00 | 0.00 | 95 | 1013.0 |
| 20260502210426 | 64 | 110 | 3.0 | 0.0 | 0.00 | 0.00 | 0.00 | 95 | 1013.0 |
| 20260502204926 | 63 | 110 | 3.0 | 0.0 | 0.00 | 0.00 | 0.00 | 93 | 1013.0 |
| 20260502203420 | 64 | 0 | 2.0 | 0.0 | 0.00 | 0.00 | 0.00 | 92 | 1013.0 |
| 20260502201920 | 65 | 0 | 2.0 | 0.0 | 0.00 | 0.00 | 0.00 | 92 | 1013.0 |
| 20260502200419 | 64 | 300 | 5.0 | 0.0 | 0.00 | 0.00 | 0.00 | 90 | 1013.0 |
| 20260502194914 | 65 | 300 | 5.0 | 0.0 | 0.00 | 0.00 | 0.00 | 90 | 1013.0 |
| 20260502193408 | 66 | 300 | 5.0 | 0.0 | 0.00 | 0.00 | 0.00 | 89 | 1013.0 |
| 20260502191907 | 64 | 300 | 5.0 | 0.0 | 0.00 | 0.00 | 0.00 | 87 | 1013.0 |
| 20260502190406 | 65 | 290 | 5.0 | 0.0 | 0.00 | 0.00 | 0.00 | 84 | 1013.0 |
| 20260502184906 | 66 | 290 | 5.0 | 0.0 | 0.00 | 0.00 | 0.00 | 84 | 1013.0 |
| 20260502183405 | 64 | 290 | 8.0 | 0.0 | 0.00 | 0.00 | 0.00 | 85 | 1013.0 |
| 20260502181904 | 65 | 290 | 8.0 | 0.0 | 0.00 | 0.00 | 0.00 | 83 | 1014.0 |
| 20260502180404 | 66 | 290 | 8.0 | 0.0 | 0.00 | 0.00 | 0.00 | 82 | 1014.0 |
| 20260502170358 | 70 | 290 | 9.0 | 0.0 | 0.00 | 0.00 | 0.00 | 81 | 1015.0 |
| 20260502163350 | 73 | 290 | 9.0 | 0.0 | 0.00 | 0.00 | 0.00 | 82 | 1015.0 |
| 20260502161849 | 66 | 253 | 1.0 | 3.0 | 0.00 | 0.00 | 0.00 | 79 | 1015.0 |
| 20260502160349 | 67 | 253 | 2.0 | 3.0 | 0.00 | 0.00 | 0.00 | 79 | 1015.0 |
| 20260502151843 | 67 | 292 | 2.0 | 0.0 | 0.00 | 0.00 | 0.00 | 80 | 1015.0 |
| 20260502150342 | 66 | 0 | 1.0 | 0.0 | 0.00 | 0.00 | 0.00 | 79 | 1015.0 |
| 20260502130336 | 65 | 110 | 3.0 | 0.0 | 0.00 | 0.00 | 0.00 | 87 | 1015.0 |
| 20260502123335 | 65 | 110 | 3.0 | 0.0 | 0.00 | 0.00 | 0.00 | 83 | 1015.0 |
| 20260502121833 | 64 | 110 | 3.0 | 0.0 | 0.00 | 0.00 | 0.00 | 85 | 1015.0 |
| 20260502120332 | 65 | 0 | 2.0 | 0.0 | 0.00 | 0.00 | 0.00 | 87 | 1015.0 |
| 20260502114832 | 64 | 0 | 2.0 | 0.0 | 0.00 | 0.00 | 0.00 | 86 | 1015.0 |
| 20260502113331 | 65 | 0 | 2.0 | 0.0 | 0.00 | 0.00 | 0.00 | 86 | 1015.0 |
| 20260502111830 | 64 | 120 | 3.0 | 0.0 | 0.00 | 0.00 | 0.00 | 85 | 1015.0 |
| 20260502110330 | 64 | 120 | 3.0 | 0.0 | 0.00 | 0.00 | 0.00 | 84 | 1015.0 |
| 20260502104827 | 64 | 120 | 3.0 | 0.0 | 0.00 | 0.00 | 0.00 | 83 | 1015.0 |
| 20260502103326 | 65 | 120 | 3.0 | 0.0 | 0.00 | 0.00 | 0.00 | 82 | 1015.0 |
| 20260502101825 | 65 | 120 | 3.0 | 0.0 | 0.00 | 0.00 | 0.00 | 82 | 1015.0 |
| 20260502100325 | 66 | 0 | 2.0 | 0.0 | 0.00 | 0.00 | 0.00 | 82 | 1015.0 |
| 20260502090321 | 58 | 0 | 2.0 | 0.0 | 0.00 | 0.00 | 0.00 | 85 | 1015.0 |
| 20260502070315 | 57 | 100 | 4.0 | 2.0 | 0.00 | 0.00 | 0.00 | 83 | 1015.0 |